Simultaneous Nadir Overpasses (SNOs) Predictions

Prediction of SNOs between FY3D and AQUA Satellite Orbit:

Table of predicted SNOs for the next 14.0 days since TLE Epoch: 6/1/2024
Index Date (FY3D) Time (FY3D) Lat,Lon (FY3D) SZA (FY3D ) Date (AQUA) Time (AQUA) Lat,Lon (AQUA) SZA (AQUA ) Distance(km) Time Diff (sec)
1 06/01/2024 18:41:28 -79.43, 60.52 122.22 06/01/2024 18:42:22 -79.44, 60.40 122.22 2.66 54
2 06/01/2024 19:32:08 79.26,-130.75 57.53 06/01/2024 19:31:40 79.26,-130.72 57.53 0.70 28
3 06/04/2024 06:45:09 79.47, 59.33 57.54 06/04/2024 06:46:10 79.48, 59.19 57.55 3.16 61
4 06/04/2024 07:35:50 -79.32,-132.12 122.68 06/04/2024 07:35:27 -79.32,-132.00 122.69 2.47 23
5 06/06/2024 18:48:51 -79.53, 57.94 122.63 06/06/2024 18:49:56 -79.53, 57.93 122.64 0.27 65
6 06/06/2024 19:39:30 79.34,-133.09 57.09 06/06/2024 19:39:13 79.33,-132.96 57.07 2.92 17
7 06/09/2024 06:52:31 79.55, 56.90 57.19 06/09/2024 06:53:41 79.54, 56.96 57.16 1.37 70
8 06/09/2024 07:43:10 -79.34,-133.96 123.13 06/09/2024 07:42:57 -79.34,-133.92 123.13 0.71 13
9 06/11/2024 18:56:11 -79.55, 56.01 122.98 06/11/2024 18:57:24 -79.55, 56.03 123.00 0.45 73
10 06/11/2024 19:46:50 79.36,-135.04 56.74 06/11/2024 19:46:41 79.35,-134.91 56.72 2.93 9
11 06/14/2024 07:01:59 80.89, 8.95 63.22 06/14/2024 07:03:11 81.63, 8.45 63.50 82.18 72



Historial Predications of SNOs between FY3D and AQUA
